Regional Weather Roundup
Issued by NWS Cleveland, OH

Home | Current Version | Previous Version | Graphics & Text | Print | Product List | Glossary On
Versions: 1 2 3 4 5 6 7 8 9 10 11 12 13 14 15 16 17 18 19 20 21 22 23 24 25 26 27 28 29 30 31 32 33 34 35 36 37 38 39 40 41 42 43 44 45 46 47 48 49 50
000
ASUS41 KCLE 261312
RWRCLE
OHIO REGIONAL WEATHER ROUNDUP
NATIONAL WEATHER SERVICE WILMINGTON, OH
900 AM EDT WED JUL 26 2017

NOTE: "FAIR" INDICATES FEW OR NO CLOUDS BELOW 12,000 FEET WITH NO
SIGNIFICANT WEATHER AND/OR OBSTRUCTIONS TO VISIBILITY.

OHZ001>008-015>018-024>027-034-035-043-044-261400-
   NORTHWEST OHIO

CITY           SKY/WX    TMP DP  RH WIND       PRES   REMARKS
DEFIANCE       FAIR     N/A N/A N/A VRB5      30.18R
FINDLAY        FAIR      66  60  81 S5        30.18R
TOLEDO EXPRESS FAIR      65  63  93 CALM      30.18R
TOLEDO EXEC    FAIR      67  63  87 CALM      30.19R
LIMA           FAIR      66  62  87 S3        30.19R
$$

OHZ009>014-019>023-028>033-038-089-261400-
   NORTHEAST OHIO

CITY           SKY/WX    TMP DP  RH WIND       PRES   REMARKS
CLE-HOPKINS    FAIR      70  60  70 SW7       30.20S
CLE-LAKEFRONT  FAIR      69  58  67 S8        30.17S
CUY CO. ARPT   MOSUNNY   68  59  73 S7        30.19F
LORAIN-ELYRIA  FAIR      64  57  78 SW5       30.19S
ASHTABULA      FAIR      63  60  90 S6        30.20F
AKRON-CANTON   FAIR      68  59  73 S3        30.19S
WOOSTER        FAIR      66  62  87 S3        30.20S
MANSFIELD      FAIR      67  62  84 S5        30.19F
YOUNGSTOWN     FAIR      65  60  84 S5        30.19F
$$

OHZ042-051>053-060>062-070>072-077>081-261400-
  SOUTHWEST OHIO

CITY           SKY/WX    TMP DP  RH WIND       PRES   REMARKS
CINC-COVINGTON FAIR      69  63  81 VRB5      30.17R
CINC-LUNKEN    FAIR      67  62  84 NE3       30.18R
HAMILTON       FAIR      67  62  84 VRB3      30.18R
DAYTON         FAIR      66  60  81 SE8       30.18F
WRIGHT-PAT AFB FAIR      67  61  80 SE5       30.18S
DAYTON GENERAL FAIR      67  60  78 SE5       30.17S
WILMINGTON     FAIR      64  61  90 VRB5      30.18R
$$

OHZ036-037-039>041-045>050-054>059-063>069-073>076-082>088-261400-
  CENTRAL AND SOUTHEAST OHIO

CITY           SKY/WX    TMP DP  RH WIND       PRES   REMARKS
COLUMBUS       FAIR      67  61  81 CALM      30.18R
OSU AIRPORT    FAIR      67  63  87 E3        30.18S
BOLTON FIELD   SUNNY     66  63  88 CALM      30.19R
RICKENBACK AFB FAIR      65  62  89 E3        30.19R
NEWARK         PTSUNNY   63  62  97 CALM      30.19R FOG
MARION         FAIR      67  61  81 SE3       30.19S
LANCASTER      FAIR      62  61  96 NW5       30.20R
ZANESVILLE     FAIR      66  61  84 CALM      30.19R
NEW PHILLY     CLOUDY    64  63  96 CALM      30.19F FOG
$$



USA.gov is the U.S. government's official web portal to all federal, state and local government web resources and services.